Home > Weather > Lippstadt > Past weeks

Flag for Germany Past Weather in Lippstadt, North Rhine-Westphalia, Germany — Yesterday and Last 2 Weeks

Now
63 °F

Sunny.


Feels Like: 63 °F
Forecast: 60 / 72 °F
Wind: 10 mph from Southwest

Location: Paderborn / Lippstadt

Current Time: Jul 28, 2016 at 10:30:49 PM

Latest Report: Jul 28, 2016 at 9:50 PM


Visibility: 10 mi

Pressure: 29.95 "Hg

Humidity: 88%

Dew Point: 59 °F

Location of LippstadtLocation

Past Weather in Lippstadt — Graph

°F

Lippstadt Temperature Yesterday

Maximum temperature yesterday: 72 °F (at 11:50 AM)
Minimum temperature yesterday: 59 °F (at 4:50 AM)
Average temperature yesterday: 66 °F

High & Low Weather Summary for the Past Weeks

 TemperatureHumidityPressure
High91 °F (Jul 20, 5:20 PM)100% (Jul 14, 5:20 AM)30.27 "Hg (Jul 14, 5:20 AM)
Low50 °F (Jul 14, 6:50 AM)23% (Jul 20, 5:20 PM)29.89 "Hg (Jul 20, 6:50 PM)
Average67 °F71%30.09 "Hg
* Reported Jul 13 9:20 PM — Jul 28 9:20 PM, Lippstadt, Weather by CustomWeather, © 2016

Note: Actual official high and low records may vary slightly from our data, if they occured in-between our weather recording intervals... More about our weather records

Advertising

Lippstadt Weather History for the Previous 24 Hours

Scroll right to see more
 ConditionsComfort  
Time TempWeatherWind HumidityBarometerVisibility
9:20 PM
Thu, Jul 28
64 °FSunny.10 mph83%29.95 "Hg10 mi
8:50 PM64 °FSunny.8 mph83%29.92 "Hg10 mi
8:20 PM64 °FScattered clouds.7 mph88%29.95 "HgN/A
7:50 PM64 °FScattered clouds.7 mph83%29.92 "HgN/A
7:20 PM64 °FScattered clouds.6 mph83%29.95 "HgN/A
6:50 PM64 °FLight rain. Broken clouds.7 mph94%29.95 "HgN/A
6:20 PM64 °FLight rain. Partly sunny.3 mph94%29.95 "HgN/A
5:50 PM64 °FLight rain. Partly sunny.5 mph88%29.95 "HgN/A
5:20 PM64 °FLight rain. Partly sunny.7 mph88%29.98 "HgN/A
4:50 PM68 °FLight rain. Partly sunny.10 mph73%29.98 "HgN/A
4:20 PM70 °FBroken clouds.9 mph73%29.98 "HgN/A
3:50 PM68 °FLight rain. Broken clouds.9 mph78%29.98 "HgN/A
3:20 PM70 °FLight rain. Broken clouds.13 mph69%29.98 "HgN/A
2:50 PM70 °FBroken clouds.12 mph69%29.98 "HgN/A
2:20 PM70 °FScattered showers. Broken clouds.12 mph69%30.01 "HgN/A
1:50 PM68 °FScattered showers. Broken clouds.12 mph73%30.01 "HgN/A
1:20 PM66 °FScattered showers. Broken clouds.14 mph83%30.01 "HgN/A
12:50 PM68 °FBroken clouds.13 mph69%30.01 "HgN/A
12:20 PM68 °FBroken clouds.8 mph73%30.01 "HgN/A
11:50 AM68 °FPartly sunny.6 mph69%30.01 "HgN/A
11:20 AM68 °FPartly sunny.8 mph69%30.01 "HgN/A
10:50 AM68 °FPartly sunny.5 mph69%30.01 "HgN/A
10:20 AM66 °FPartly sunny.3 mph73%30.01 "HgN/A
9:50 AM66 °FDrizzle. Partly sunny.3 mph73%30.01 "HgN/A
9:20 AM66 °FPartly sunny.3 mph73%30.01 "HgN/A
8:50 AM64 °FScattered clouds.6 mph78%30.01 "HgN/A
8:20 AM64 °FSunny.8 mph78%30.01 "Hg10 mi
7:50 AM64 °FSunny.6 mph78%30.01 "Hg10 mi
7:20 AM63 °FSunny.5 mph83%30.01 "Hg10 mi
6:50 AM63 °FSunny.3 mph83%30.01 "Hg10 mi
6:20 AM63 °FPassing clouds.6 mph83%30.01 "HgN/A
5:50 AM63 °FClear.7 mph83%30.01 "Hg10 mi
5:20 AM63 °FPartly cloudy.8 mph83%30.01 "HgN/A
4:50 AM64 °FPassing clouds.7 mph78%30.01 "HgN/A
4:20 AM64 °FPassing clouds.8 mph78%30.01 "HgN/A
3:50 AM64 °FPassing clouds.6 mph78%30.04 "HgN/A
3:20 AM64 °FPassing clouds.6 mph78%30.04 "HgN/A
2:50 AM64 °FPassing clouds.5 mph78%30.04 "HgN/A
2:20 AM64 °FPassing clouds.3 mph78%30.04 "HgN/A
1:50 AM64 °FPassing clouds.3 mph78%30.04 "HgN/A
1:20 AM64 °FPassing clouds.3 mph78%30.04 "HgN/A
12:50 AM64 °FPassing clouds.3 mph78%30.04 "HgN/A
12:20 AM64 °FPassing clouds.3 mph78%30.04 "HgN/A
11:50 PM
Wed, Jul 27
64 °FClear.6 mph78%30.04 "Hg10 mi
11:20 PM64 °FClear.5 mph78%30.04 "Hg10 mi
10:50 PM64 °FClear.6 mph78%30.04 "Hg10 mi
10:16 PM66 °FSunny.5 mph73%30.04 "Hg10 mi
Weather by CustomWeather, © 2016

See weather overviewHow to use our weather pages